RH
16 16 16 17 24 30 26 19 22 29 24 11 4 4 3 3 3 3 3 3 3 4 3 3 3 3 3 3 3 3 2 2 2 2 2 2 2 2 2 2 2 3 2 3 4 4 7 18 34 50 50 38 44 56 62 69 60 38 27 26 29 31 29 25 20 19 18 18 18 17 16 16 15 14 15 15 15 17 17 16 16 15 15 15 15
16 16 17 18 25 31 26 18 18 19 14 7 4 4 3 3 3 3 4 4 5 5 4 4 4 4 5 4 4 4 3 3 2 3 2 2 2 2 2 2 2 2 2 2 2 3 7 17 29 41 51 47 47 57 62 68 61 44 38 32 30 33 33 31 25 21 19 19 19 17 17 17 16 15 15 16 16 17 18 18 18 17 16 16 15
17 17 18 21 28 32 26 19 16 16 13 9 6 4 4 3 3 4 5 6 6 5 5 5 6 6 6 5 5 4 4 3 3 3 2 3 2 2 3 2 3 2 2 2 2 4 6 13 19 24 40 44 39 44 55 67 66 57 55 50 41 36 36 37 34 27 22 20 20 19 18 17 18 17 15 16 17 18 19 20 20 18 17 17 16
18 17 20 29 35 33 27 20 15 15 15 12 8 5 4 3 4 5 7 7 5 5 5 7 7 7 6 5 4 4 3 3 3 3 3 3 3 3 3 2 3 2 3 3 2 3 4 8 11 11 20 30 35 38 42 53 60 60 63 63 58 50 44 42 40 35 29 24 22 20 20 19 18 18 17 16 17 19 20 20 21 20 19 17 17
18 17 29 43 43 37 32 23 16 15 14 12 8 6 4 4 5 7 8 6 5 5 7 8 8 7 6 5 5 5 4 4 4 4 3 4 3 3 3 3 3 3 3 4 4 3 3 4 5 5 8 18 34 44 45 46 52 60 63 64 65 62 57 53 48 43 36 30 26 22 21 20 19 18 18 18 17 19 20 21 22 21 20 19 17
18 22 39 51 47 41 38 30 20 15 15 12 9 7 6 6 7 9 8 5 5 7 8 8 8 7 7 7 7 7 7 6 6 5 5 5 5 4 4 4 4 4 4 4 5 4 4 4 4 4 5 10 22 34 41 40 42 52 57 59 61 60 59 61 59 55 46 36 30 28 25 22 21 20 19 19 18 19 20 21 23 22 21 20 19
24 29 40 45 43 41 42 40 25 15 17 15 13 10 7 8 9 9 6 5 7 9 9 9 9 8 9 10 10 10 10 9 9 8 8 7 7 6 5 6 5 4 5 4 5 5 4 4 4 4 4 5 8 15 26 32 35 43 50 52 49 49 52 56 61 65 62 51 37 31 29 26 23 22 21 20 19 18 20 21 23 24 23 21 19
31 31 35 38 41 42 47 48 31 16 17 16 14 13 9 10 9 7 5 6 9 10 10 10 10 11 11 12 13 13 13 12 12 11 10 10 9 9 7 7 6 6 6 5 5 4 4 4 4 4 4 4 4 6 12 19 27 37 45 47 43 44 48 49 56 66 72 71 59 43 33 30 27 25 22 22 21 19 19 21 23 24 24 23 20
35 34 36 39 45 48 52 52 34 18 15 13 13 12 11 10 7 6 7 9 11 11 11 11 12 14 14 15 15 15 16 15 15 14 13 13 12 11 10 9 9 8 7 7 6 5 5 5 5 4 4 5 4 4 5 7 16 25 31 36 39 40 43 42 46 60 70 74 75 66 48 35 30 28 26 23 22 21 20 21 23 24 25 24 22
40 39 41 45 51 57 59 53 34 17 12 10 10 10 8 8 6 6 9 11 12 12 12 13 14 16 16 17 17 17 18 17 17 16 16 15 14 14 13 12 11 11 10 9 8 7 6 5 5 5 4 4 4 4 4 4 8 14 18 27 33 32 36 41 42 53 67 71 75 80 72 57 42 33 28 27 24 22 22 21 23 25 26 26 23
44 43 46 53 62 69 65 49 29 15 10 9 8 7 6 7 7 8 10 12 13 14 14 15 16 17 17 17 18 18 18 18 18 18 18 17 16 16 15 15 14 14 13 12 11 10 9 8 6 6 5 5 5 4 4 5 5 7 12 22 28 27 33 45 49 53 66 74 76 80 82 77 67 53 38 31 28 25 22 22 23 24 26 27 26
47 48 52 62 71 70 57 36 19 11 8 8 7 7 7 8 10 11 12 13 14 14 15 16 17 17 18 18 18 18 19 19 18 18 19 18 17 17 17 17 16 15 15 15 15 13 12 11 10 9 8 7 6 5 5 5 5 5 7 11 15 21 28 39 50 58 66 72 74 78 85 86 83 77 63 45 35 31 26 22 22 24 26 29 28
51 52 57 68 74 66 46 23 10 9 8 8 8 8 9 11 12 13 13 13 13 15 16 16 17 17 18 18 18 18 18 19 20 20 20 19 19 19 19 19 18 17 17 16 16 16 15 15 14 13 12 10 9 8 7 6 5 4 5 6 6 12 20 27 37 48 57 63 65 69 77 83 82 81 80 68 53 42 34 27 23 22 25 29 31
57 59 62 71 75 60 34 13 8 9 9 10 10 10 11 12 13 14 14 14 14 16 16 17 17 17 18 18 19 19 20 22 22 22 23 23 23 23 22 21 21 20 19 18 18 17 17 17 17 17 16 15 13 11 10 9 8 6 5 6 5 7 10 15 22 28 38 49 54 57 62 70 78 78 80 81 73 62 50 37 27 23 23 26 30
68 68 67 73 71 47 21 9 10 11 10 10 10 11 12 13 14 15 14 15 16 16 17 17 17 18 18 19 20 22 25 26 27 27 27 27 28 27 27 27 26 25 23 22 21 20 20 20 19 19 19 18 17 15 14 12 11 10 9 7 6 6 5 7 9 13 30 42 43 50 57 65 76 79 79 80 80 78 72 59 42 29 24 24 27
76 75 72 71 61 36 16 12 12 11 10 10 11 12 14 14 15 15 15 16 17 17 17 17 18 18 19 22 25 28 30 31 32 31 30 30 31 31 32 32 31 31 29 28 27 26 25 24 23 23 22 22 22 20 18 16 15 13 13 11 9 8 7 7 5 6 26 42 46 52 56 60 72 84 89 87 84 84 83 80 70 51 33 25 25
77 77 77 71 54 33 19 15 12 11 11 11 13 14 14 14 15 16 17 18 18 18 17 17 18 20 24 28 31 34 35 36 36 37 34 32 32 31 32 32 31 31 31 31 30 29 29 28 27 27 27 27 26 25 22 19 18 16 15 14 13 12 10 9 8 6 12 24 39 53 54 52 59 70 82 86 89 92 89 87 87 78 56 34 25
77 77 80 75 55 33 20 16 13 12 12 13 14 15 14 15 16 17 19 19 19 19 18 19 22 27 31 34 35 36 35 35 35 37 37 33 29 28 28 27 26 26 27 28 28 28 28 29 28 28 29 29 28 28 26 23 21 19 18 17 16 15 14 12 11 10 9 10 20 34 43 54 61 61 66 73 82 90 94 94 92 91 79 54 33
78 81 86 76 48 24 17 15 14 14 15 15 15 15 16 17 18 19 20 19 19 19 21 25 30 35 36 34 33 31 30 29 29 31 35 36 31 27 26 24 23 23 22 24 25 26 26 27 27 27 27 27 26 26 25 24 22 20 20 19 18 17 16 16 14 13 14 16 20 20 25 44 58 59 57 63 71 72 74 85 93 95 93 77 52
82 83 76 56 29 17 17 17 16 16 16 16 16 17 18 19 20 21 20 19 20 23 28 34 37 37 34 30 28 27 26 25 25 25 29 36 37 32 29 26 23 21 21 23 23 23 24 24 24 24 25 24 23 23 22 22 22 21 20 19 19 19 18 17 17 16 15 16 24 30 29 30 35 44 53 58 64 66 64 69 78 85 92 91 75
79 70 53 34 21 19 19 17 17 18 18 18 19 20 20 21 22 21 21 23 26 31 36 38 38 35 31 28 27 27 26 24 24 24 25 30 35 36 35 32 28 23 21 22 21 20 20 20 20 21 22 22 21 20 20 20 19 20 20 20 19 19 19 18 18 18 18 16 19 27 35 38 34 37 50 54 55 63 65 64 63 61 74 93 94
73 61 44 29 21 18 17 17 19 19 20 21 21 23 23 24 25 25 28 31 35 39 39 38 35 33 31 30 28 27 26 24 23 23 23 25 29 33 35 35 33 29 25 22 20 18 18 17 17 17 18 19 19 19 18 18 18 17 18 18 18 18 18 19 19 18 18 18 17 17 22 37 47 45 44 46 51 56 55 63 70 57 62 90 101
65 53 37 24 18 17 17 19 21 23 23 24 24 26 26 28 30 32 36 39 41 40 37 35 33 33 32 30 28 26 24 23 22 22 22 23 26 30 33 34 33 31 29 26 22 20 19 18 17 17 16 16 15 16 16 16 16 16 16 16 16 17 16 17 18 19 19 18 19 19 15 22 39 47 45 46 52 55 50 62 81 72 69 92 102
50 37 25 19 18 18 20 22 25 26 26 27 28 29 30 33 36 39 41 42 41 38 36 34 34 34 32 30 28 27 24 22 22 22 23 24 25 28 32 34 32 30 28 26 24 21 19 18 17 16 15 14 14 13 13 14 14 14 15 15 15 15 15 15 16 17 19 19 18 19 19 16 20 27 34 39 43 52 53 53 70 79 78 88 95
36 26 21 21 20 21 24 26 28 29 31 33 34 34 36 40 42 43 43 42 40 38 37 37 37 35 34 33 31 28 25 23 23 24 25 25 25 27 31 32 32 30 28 25 24 21 19 17 15 15 14 14 14 13 12 12 12 13 12 13 14 13 14 14 15 15 16 19 19 18 19 19 18 16 18 23 28 43 57 53 55 68 75 81 88
33 26 25 24 25 26 28 30 33 36 38 40 42 43 44 45 45 44 43 42 41 40 41 40 39 38 38 37 33 29 26 25 26 28 29 29 29 31 33 34 34 32 29 26 24 23 21 19 16 15 15 15 14 14 14 13 12 13 12 12 13 12 13 12 13 15 14 15 17 18 18 17 18 18 16 17 17 26 43 50 46 46 60 79 90
33 29 27 27 28 30 34 38 41 44 46 48 48 48 47 45 44 44 43 44 45 46 46 44 43 42 41 37 33 31 30 30 31 32 34 35 35 35 36 37 36 33 31 29 26 24 22 21 20 18 17 17 16 15 14 14 13 13 12 12 12 12 12 12 12 13 14 15 15 16 17 18 18 18 18 17 17 17 22 34 43 43 51 71 81
31 29 29 32 37 41 45 46 48 50 52 52 50 48 46 45 45 46 48 50 51 51 49 47 45 42 39 36 34 34 33 32 32 35 38 39 39 39 39 38 37 35 33 31 28 26 23 22 21 20 18 17 17 16 15 14 13 13 12 11 12 11 11 11 11 12 12 14 15 15 15 17 18 18 18 17 17 18 15 19 37 44 40 49 66
34 36 41 48 52 52 53 53 54 54 52 50 49 48 47 48 50 54 56 55 54 53 50 47 44 40 38 38 36 35 34 33 33 35 38 40 41 41 41 40 38 35 32 30 27 25 23 21 20 19 18 17 16 15 14 14 13 12 12 11 10 11 10 11 11 11 12 12 13 15 15 16 17 17 18 18 17 18 17 15 28 41 36 34 55
48 53 57 59 59 58 59 59 56 52 51 51 50 50 51 55 58 59 58 56 54 51 48 44 42 40 38 37 35 33 33 33 32 32 35 40 44 46 46 44 41 35 30 26 24 22 21 19 18 17 17 15 14 14 13 12 12 11 10 10 9 9 8 9 9 9 10 11 11 12 13 14 15 16 17 18 18 17 18 15 19 37 47 41 49
65 66 65 64 63 64 63 59 54 53 54 53 53 55 59 61 61 58 55 53 49 45 42 41 40 37 34 32 30 29 30 30 32 35 41 47 51 51 48 42 36 30 25 22 21 20 19 18 16 15 14 12 11 11 10 8 8 8 8 7 6 6 6 6 7 7 7 8 9 10 11 12 13 15 15 16 18 17 18 17 15 24 37 39 40
75 73 71 69 68 67 64 59 56 56 56 55 58 62 62 60 57 53 50 46 42 40 41 40 37 33 29 26 24 26 30 35 41 47 51 51 48 43 37 31 26 23 21 20 19 18 16 15 13 11 9 8 6 6 6 5 5 4 4 4 4 4 4 4 3 4 5 5 6 6 8 10 10 12 13 14 16 17 17 18 16 16 20 23 29
77 75 73 72 71 69 65 61 59 58 58 61 62 61 57 54 50 46 42 40 41 41 39 35 30 26 22 22 25 32 40 47 51 51 46 40 35 30 27 25 23 22 20 18 16 13 10 8 7 6 5 4 4 4 3 3 3 3 3 3 3 3 3 4 3 3 3 3 4 4 4 6 7 8 10 12 13 15 17 18 17 17 16 14 19
74 73 73 74 73 70 66 63 62 61 61 63 61 55 51 47 42 38 36 38 40 37 32 27 23 20 21 28 37 45 50 52 48 41 34 31 28 26 25 23 20 17 14 11 9 7 5 4 4 4 3 3 3 3 3 3 2 2 2 2 2 3 2 2 2 2 3 3 2 3 3 3 4 5 7 9 10 12 14 16 17 17 17 15 15
76 76 76 75 72 69 66 64 61 60 62 61 56 49 43 38 33 30 31 33 32 29 25 22 21 25 34 44 50 53 52 46 38 32 29 28 26 24 21 16 13 9 7 6 5 4 4 4 3 3 3 2 2 2 2 2 2 2 2 2 2 2 2 2 2 2 2 2 2 2 2 3 3 3 4 5 7 9 11 13 15 16 17 16 16
79 78 76 74 71 69 65 61 59 60 60 54 46 39 34 30 28 26 26 26 26 24 23 25 32 42 50 55 55 51 44 36 30 29 28 26 22 18 13 9 7 5 5 4 4 3 3 3 2 2 2 2 2 2 2 2 2 2 2 2 2 2 2 2 2 2 2 2 2 2 2 2 2 2 3 3 4 6 8 10 12 15 16 16 16
78 77 77 75 72 67 61 59 58 56 50 41 35 32 29 29 28 26 26 26 27 27 31 40 50 56 58 56 50 41 34 31 30 28 25 20 14 10 7 6 5 4 4 3 2 3 3 2 3 3 3 3 3 3 3 2 3 3 3 3 3 2 2 2 2 2 2 2 2 2 2 2 2 2 2 3 3 3 5 7 9 11 13 15 16
80 80 78 74 69 64 60 56 50 44 37 33 31 29 28 28 27 30 35 37 36 39 48 58 63 62 58 50 40 34 32 31 28 23 17 12 8 6 5 4 4 3 3 3 3 3 3 3 4 4 4 4 4 3 4 4 3 3 3 3 3 3 3 3 2 2 2 2 2 2 2 1 2 2 2 2 3 3 3 4 6 8 10 13 15
80 79 75 71 68 62 54 45 39 35 32 31 29 27 27 26 27 39 50 50 50 57 65 69 66 59 50 39 34 33 31 26 20 14 9 7 5 5 4 3 3 3 3 3 3 3 4 4 4 5 5 4 4 5 4 4 3 3 3 3 3 4 3 3 3 3 2 3 2 2 2 2 1 2 2 2 2 2 3 3 3 6 8 9 11
75 74 72 69 61 51 42 37 35 33 30 28 27 26 26 23 28 46 59 61 64 71 73 67 58 48 39 35 35 31 24 17 11 8 6 5 5 4 3 3 3 3 3 4 4 5 5 5 5 5 5 5 5 4 4 4 4 3 3 3 3 4 6 8 9 5 2 3 3 2 2 2 2 2 1 2 2 1 2 3 3 3 5 7 8
67 66 63 56 47 41 38 36 33 29 27 27 25 25 23 21 31 51 66 71 75 74 66 55 45 39 36 35 30 22 15 10 7 6 5 4 4 3 3 3 3 4 4 5 6 6 5 6 6 6 5 5 5 4 4 4 3 3 6 11 18 25 26 25 26 20 8 3 3 3 2 2 2 3 2 1 2 2 1 2 3 3 3 4 6
58 56 51 45 41 39 36 33 30 27 26 25 23 23 23 26 42 63 75 77 73 63 51 43 39 37 34 28 19 12 9 7 6 5 4 3 3 3 3 4 4 5 5 6 7 7 6 6 6 6 6 5 5 4 4 4 4 10 21 30 37 44 45 45 47 41 24 12 9 8 8 7 2 2 3 2 1 2 2 1 2 3 3 3 4
53 50 46 43 41 38 33 30 28 26 24 23 24 26 30 40 56 71 75 69 58 48 42 40 38 34 26 17 12 9 7 6 5 4 3 3 3 3 4 5 5 6 7 8 8 7 7 7 7 7 6 5 5 4 4 5 10 21 32 37 38 46 54 53 52 52 46 39 35 31 31 28 13 1 2 3 2 1 2 2 2 2 3 3 3
52 47 44 43 40 35 30 28 26 25 24 24 26 31 39 49 60 64 61 53 46 42 41 39 32 24 16 11 8 7 6 5 4 3 3 4 4 5 5 5 7 8 8 9 9 8 8 8 8 8 6 5 5 5 5 7 15 25 30 33 39 51 59 57 54 57 59 60 59 55 57 59 40 13 2 2 3 2 1 1 2 1 2 3 2
50 46 45 44 38 32 28 27 27 26 25 26 30 37 44 51 54 54 49 45 43 42 38 31 22 15 11 9 7 6 5 4 4 3 4 5 5 6 6 7 9 10 10 11 10 10 9 8 9 8 7 7 5 4 6 9 14 21 24 33 46 53 57 59 55 49 45 48 52 47 47 53 43 23 11 3 0 3 2 0 2 2 1 3 2
50 49 48 43 35 29 28 29 27 26 26 28 35 42 47 51 51 48 45 44 43 38 30 21 15 11 9 7 6 5 4 4 4 4 5 5 6 7 7 9 11 10 12 12 11 11 11 9 10 9 8 8 6 5 8 9 15 20 26 41 52 54 61 63 47 33 34 40 43 40 40 37 22 14 18 12 1 1 3 1 1 2 1 1 3
53 52 48 40 32 30 30 30 28 27 28 32 41 47 50 50 48 46 45 43 37 29 20 14 11 9 7 6 5 4 3 4 5 5 6 6 6 8 9 10 11 11 12 12 12 13 12 11 12 10 9 9 7 8 8 11 20 24 34 58 70 69 76 66 39 40 57 57 51 52 55 45 20 7 17 18 6 1 2 2 1 1 2 2 1
59 55 46 37 33 32 31 30 28 28 32 39 48 52 52 49 47 46 43 37 28 19 14 12 9 7 6 5 4 4 4 5 5 6 7 6 7 9 10 11 11 12 13 13 14 14 13 13 13 11 12 10 8 10 9 12 22 26 42 78 90 84 83 60 35 50 72 71 75 83 78 63 36 13 11 16 13 5 0 3 3 0 2 3 1
63 54 43 36 34 33 31 30 29 33 40 48 53 53 51 48 46 44 37 27 19 15 12 10 7 6 5 4 4 4 5 6 6 6 7 7 9 9 10 11 11 12 13 14 15 15 15 16 15 12 13 12 10 12 10 13 21 27 50 84 90 84 83 62 42 50 56 62 89 106 90 66 42 18 8 14 20 12 1 0 4 2 1 2 2
62 50 40 37 35 32 31 31 33 41 50 54 54 52 49 47 44 37 27 18 15 13 10 8 6 6 4 4 4 5 6 7 7 7 8 8 9 10 11 11 11 12 14 14 15 16 16 17 17 15 14 13 11 12 11 13 18 26 51 82 90 88 85 63 46 53 61 71 98 107 83 57 47 36 20 17 23 19 6 1 2 3 2 1 2
56 46 40 37 34 33 33 34 40 50 56 57 54 50 47 44 38 27 19 15 14 11 8 7 6 5 4 4 5 6 7 7 7 7 9 9 10 11 10 11 12 12 14 14 14 16 16 17 18 17 16 14 12 12 12 13 15 20 43 76 93 90 80 58 41 51 70 81 93 103 88 68 72 71 43 27 32 22 6 3 2 1 4 2 1
Wind_Speed
13 13 14 14 15 15 16 15 13 11 9 8 7 7 8 8 8 9 10 11 12 13 13 14 15 16 15 15 15 15 15 15 15 16 17 18 18 19 19 18 18 18 18 17 17 17 17 16 16 17 17 16 17 16 15 15 16 18 18 18 18 18 19 19 20 20 19 19 20 19 17 16 15 14 14 14 15 15 15 16 16 16 16 18 18
14 14 15 15 15 15 15 15 13 11 9 8 8 8 8 9 9 10 11 12 12 13 13 14 15 15 16 16 17 17 17 17 17 17 17 18 19 19 19 20 19 19 19 18 18 18 18 18 17 18 18 17 18 17 17 16 17 18 18 19 19 19 19 19 20 20 20 20 20 20 19 17 16 15 15 15 15 15 16 16 16 16 16 17 18
15 15 14 14 15 15 15 14 13 11 10 10 9 9 9 9 10 11 12 13 13 13 13 13 14 15 16 17 17 18 18 19 19 19 19 19 19 19 19 19 19 19 19 19 19 18 18 18 18 18 18 17 17 18 18 17 18 18 19 20 20 20 19 19 20 21 21 21 21 21 20 19 18 16 15 15 15 16 16 17 17 17 17 17 18
15 15 14 14 13 14 14 14 13 11 10 10 10 10 10 11 12 13 14 14 14 14 14 14 15 15 16 16 17 17 18 19 19 19 19 19 20 20 20 19 19 19 19 18 18 18 18 17 18 19 19 18 17 18 18 18 18 19 20 21 21 21 20 20 20 21 21 21 21 22 22 21 19 18 17 16 16 16 16 17 17 17 17 17 18
15 15 15 14 13 13 14 15 14 12 11 11 11 12 12 13 14 15 15 15 15 15 15 15 15 16 16 16 16 16 17 18 18 19 19 19 20 20 21 21 21 21 20 19 19 19 18 17 18 19 19 19 18 18 17 18 19 20 21 21 21 21 21 21 21 21 22 22 22 22 22 22 21 20 18 17 17 17 17 17 17 18 18 17 18
15 15 16 15 14 14 15 15 15 13 12 12 12 13 13 14 15 16 15 15 15 15 15 15 15 16 16 16 17 17 17 17 18 19 19 19 20 20 21 21 22 22 21 20 20 20 19 18 18 19 19 20 20 18 18 19 19 20 21 21 22 22 22 22 21 22 23 23 22 22 23 23 22 21 20 19 18 17 17 17 18 18 18 17 17
15 16 16 16 15 15 15 15 14 13 13 13 12 13 14 15 15 15 15 15 15 15 15 15 15 16 16 17 17 18 18 18 18 19 20 20 20 21 21 21 22 22 22 22 21 21 20 19 19 19 20 20 21 20 19 19 20 20 21 21 21 22 23 23 23 22 23 23 23 23 23 24 24 23 21 20 19 19 18 18 18 18 18 18 17
15 16 17 17 16 16 16 15 14 13 13 13 13 13 14 15 15 14 15 15 16 15 15 15 16 16 17 17 18 18 19 19 19 20 20 21 21 22 22 22 23 23 23 23 22 21 21 20 19 20 20 20 21 21 20 20 20 21 22 22 22 22 23 24 24 24 24 24 24 24 23 24 25 24 23 22 21 20 19 19 19 19 19 18 18
16 16 17 18 18 17 16 14 14 14 13 13 13 13 13 14 14 14 15 15 15 15 15 15 16 17 17 18 19 19 20 20 21 21 21 21 22 22 23 23 24 24 24 24 24 23 22 21 20 20 20 21 21 22 22 22 21 21 22 22 23 23 24 24 24 25 25 24 25 25 25 24 25 25 25 23 22 22 21 20 20 19 19 19 18
17 17 18 19 19 18 15 14 14 14 13 13 12 12 12 13 13 14 15 16 15 15 15 15 16 17 18 19 20 20 21 21 22 22 22 23 22 22 23 24 24 25 25 25 25 24 23 22 21 20 20 20 21 21 22 23 23 23 22 22 23 23 24 24 24 25 26 25 25 26 26 26 25 26 26 25 24 23 22 21 21 21 20 20 19
17 17 18 19 19 16 13 13 13 13 12 12 12 12 12 12 13 14 15 16 15 16 16 16 17 18 19 20 21 22 22 23 23 24 24 24 23 23 24 24 24 25 25 25 25 25 25 24 23 22 21 21 21 21 22 22 23 23 23 22 22 24 24 24 25 25 26 26 25 25 27 27 27 26 26 26 26 25 24 23 23 22 21 21 20
17 17 17 18 16 13 12 12 12 11 11 11 12 12 12 13 13 14 15 16 16 17 17 18 18 19 20 21 23 24 24 24 25 25 25 24 25 25 24 24 24 25 26 26 26 26 26 25 25 24 23 22 21 22 22 23 23 24 24 23 22 23 23 24 25 25 25 25 26 26 26 28 29 28 28 27 27 27 26 25 24 23 23 22 22
17 17 17 17 14 12 12 12 11 11 11 12 12 12 13 13 13 14 15 16 17 18 18 19 20 20 20 21 23 25 26 25 26 26 25 25 25 26 26 25 25 26 26 27 27 27 27 26 26 26 25 24 24 23 23 23 24 24 25 25 24 24 23 24 25 24 24 25 26 26 26 28 29 29 29 29 28 28 28 27 26 25 24 24 24
17 17 16 17 15 13 14 13 12 11 12 12 13 13 13 13 13 14 15 17 18 19 20 20 21 22 22 23 23 25 27 27 27 27 27 27 27 27 27 27 26 27 27 28 28 28 28 28 28 28 27 27 27 26 25 25 25 25 26 26 26 26 25 26 26 25 24 25 26 27 27 28 28 28 29 30 30 29 29 29 28 27 25 25 25
16 15 15 16 15 14 15 14 13 12 12 13 14 14 14 14 14 15 17 18 19 20 21 22 23 23 23 25 26 27 28 28 27 27 26 26 27 27 28 28 28 28 29 29 29 29 29 29 29 29 29 29 29 29 28 28 27 27 27 27 27 27 27 27 27 27 25 25 26 27 27 28 28 29 29 29 30 31 31 31 30 29 27 27 27
14 13 13 14 15 15 16 15 14 13 13 14 14 15 15 15 16 17 18 19 20 21 22 23 24 24 24 25 27 28 29 29 28 28 26 25 26 26 27 28 29 29 30 31 30 30 30 30 30 30 30 30 30 30 30 30 30 29 29 29 29 28 28 28 27 28 27 25 25 26 26 27 28 28 29 29 30 32 33 33 32 31 30 28 28
13 12 13 13 14 15 16 15 15 14 14 15 15 15 16 17 18 19 20 21 21 22 22 23 24 24 26 26 26 26 27 28 28 30 30 29 28 27 27 28 29 30 31 32 33 32 31 31 31 31 31 31 31 31 32 32 32 32 31 31 30 30 30 30 29 29 28 26 25 25 25 27 28 29 30 30 30 31 32 33 34 33 32 31 30
11 12 13 13 14 15 16 16 16 15 15 16 16 16 17 18 19 21 22 23 23 24 24 24 24 25 25 25 25 24 24 25 26 28 30 31 32 31 30 29 29 30 31 32 33 33 33 32 31 31 31 32 32 32 32 33 33 33 33 33 32 32 32 32 31 31 31 28 26 26 26 27 28 29 30 31 31 31 30 30 33 34 35 34 32
12 12 13 14 15 16 17 17 16 17 17 17 17 18 18 19 21 22 23 24 25 25 25 26 26 26 25 24 24 24 24 24 25 25 26 28 30 32 33 32 32 31 32 32 32 33 32 32 31 30 30 31 32 32 32 33 33 34 34 34 34 34 34 34 33 33 34 32 29 27 27 26 28 29 30 30 31 32 31 31 33 35 36 37 35
12 12 13 15 17 17 17 17 17 18 18 18 18 19 19 21 22 23 25 25 26 26 27 27 27 26 26 25 25 24 25 25 25 25 24 24 26 28 30 31 32 32 32 32 32 32 32 32 31 30 30 31 31 32 33 33 34 34 35 35 36 36 36 36 35 34 34 34 32 30 29 27 28 29 30 30 31 32 33 34 35 35 37 40 39
12 12 13 15 16 16 17 18 19 19 19 19 19 20 21 22 23 25 26 26 27 27 28 27 27 27 27 27 27 27 27 27 27 27 26 25 25 26 27 28 30 31 31 32 33 33 32 32 32 31 32 32 32 33 33 34 35 35 35 36 36 37 37 38 38 36 36 36 35 33 31 29 28 29 29 30 30 31 32 33 35 36 37 39 42
11 12 13 15 16 17 18 18 19 19 19 19 20 21 22 24 25 26 27 28 28 28 27 26 26 26 27 27 29 29 30 30 30 30 30 29 28 28 28 28 29 30 31 33 34 34 34 34 34 33 33 33 33 34 34 35 36 36 37 37 37 38 39 39 39 38 37 37 37 36 34 31 30 29 28 29 30 31 32 32 33 34 34 37 42
12 12 14 16 17 17 18 18 19 20 20 21 22 23 24 25 26 27 28 28 28 27 27 27 26 26 27 28 29 30 31 31 32 32 32 32 31 32 32 32 33 33 33 34 35 35 35 36 35 35 34 34 34 34 34 35 36 36 37 38 38 39 40 41 40 40 39 38 38 38 37 34 32 30 29 30 31 31 31 31 31 32 33 34 39
12 14 15 16 17 17 18 19 20 21 22 23 23 24 25 26 26 27 28 28 28 28 28 28 28 28 29 29 30 30 31 32 33 33 33 33 33 33 34 35 36 36 36 36 36 36 35 35 35 35 36 36 35 35 35 36 36 37 37 38 39 39 40 41 42 42 41 40 40 40 39 38 36 34 32 31 31 31 31 31 31 32 32 32 35
13 15 16 16 17 18 19 20 21 22 23 24 24 25 26 26 27 27 28 28 28 29 29 29 30 30 31 31 31 32 33 34 34 34 35 35 35 35 35 36 37 37 37 37 37 37 37 37 37 37 38 38 38 39 38 38 38 39 39 39 40 41 41 42 43 44 44 43 42 42 41 40 39 38 36 34 33 33 31 29 30 32 32 32 33
14 15 15 16 17 18 19 20 22 23 24 25 26 26 26 27 27 28 28 29 29 30 30 30 31 32 32 33 33 34 35 35 36 37 37 37 37 37 37 38 39 40 40 40 39 39 39 40 41 41 41 41 42 42 42 42 42 42 42 42 42 43 43 43 44 45 46 46 45 45 44 42 41 40 40 38 36 35 33 31 31 32 32 33 34
14 14 15 17 18 19 19 21 22 24 25 25 26 26 27 27 28 29 29 30 30 30 31 32 33 34 34 35 36 36 37 38 38 39 39 39 39 38 38 38 39 40 41 42 42 42 42 43 44 45 45 46 46 45 46 46 46 46 46 45 45 45 45 46 46 46 47 48 48 47 46 45 43 42 42 42 39 36 35 34 33 32 33 35 36
14 15 16 17 18 19 20 22 23 24 25 26 26 27 27 28 29 30 30 31 31 31 32 33 34 35 36 37 38 39 40 40 41 42 42 41 41 40 39 39 39 40 42 43 43 44 45 45 46 47 48 49 49 49 49 49 50 49 49 49 48 48 47 47 47 48 48 49 50 49 48 48 46 45 44 44 43 40 38 36 34 32 33 35 37
14 15 16 17 18 19 21 23 24 25 25 26 26 27 28 29 30 30 31 31 32 32 33 34 35 37 38 39 40 41 42 42 43 43 43 43 42 42 41 41 42 42 43 45 46 46 47 48 49 50 51 51 51 52 52 52 52 52 52 52 51 50 49 49 49 49 49 50 51 51 51 50 49 48 46 46 45 43 41 39 36 34 34 35 36
15 16 16 18 19 20 22 23 24 25 25 26 27 28 29 30 30 31 31 32 32 33 34 35 37 39 40 41 42 43 43 44 44 44 43 43 43 42 43 43 44 45 45 47 49 50 51 52 53 53 54 54 54 54 54 55 55 54 53 53 52 52 51 50 50 50 50 51 51 52 52 52 51 50 49 48 47 46 44 42 40 38 37 35 35
16 16 17 18 20 21 22 23 24 25 26 27 28 29 30 30 31 31 31 32 33 34 36 38 39 41 42 43 44 44 45 44 44 43 42 42 42 42 43 44 45 47 48 49 52 54 54 54 55 55 56 55 55 55 55 56 56 56 55 54 54 53 52 51 51 51 50 51 52 52 53 53 53 52 51 49 49 48 47 46 43 42 41 39 37
16 17 18 19 20 22 23 24 25 26 27 28 29 29 30 31 31 32 32 33 35 36 38 39 41 43 44 45 46 46 46 45 43 42 42 42 43 44 45 47 48 50 52 53 54 56 56 56 56 56 56 56 56 55 55 56 57 57 58 57 57 56 55 54 53 53 52 52 52 52 53 53 54 53 53 52 50 50 49 49 46 45 45 43 41
16 17 19 20 21 22 23 24 25 27 28 28 29 30 30 31 31 32 33 35 36 38 39 41 43 45 46 47 47 46 45 44 43 42 43 44 46 48 49 51 53 54 54 55 55 55 56 56 56 56 57 57 57 57 56 57 57 58 59 60 60 60 60 58 57 56 55 55 54 53 53 54 54 54 54 53 53 51 51 51 49 48 47 46 45
17 18 20 21 22 22 23 25 26 27 27 28 29 30 30 31 32 34 35 37 38 39 41 43 45 47 47 47 46 45 44 43 43 44 46 48 50 51 53 54 55 55 55 54 54 54 55 56 57 57 58 59 59 59 59 58 58 58 58 59 61 61 62 62 61 60 59 58 57 56 55 55 55 55 55 55 54 53 53 52 51 50 50 49 48
18 19 20 21 22 23 24 25 26 26 27 28 29 30 31 32 34 36 37 38 39 41 43 45 46 47 46 45 44 44 44 44 45 47 49 51 52 53 54 55 55 55 55 55 56 56 57 58 59 59 59 59 59 59 59 58 58 58 57 57 58 60 61 62 62 63 62 61 60 59 58 58 57 56 57 56 56 55 54 54 53 52 52 51 50
19 19 20 21 22 23 24 25 26 26 27 28 30 31 33 34 36 37 38 40 41 43 44 45 45 44 43 43 43 44 44 46 48 50 51 53 54 54 54 54 55 55 56 57 57 58 58 58 58 58 58 58 58 57 56 55 55 55 55 55 55 56 57 58 59 60 62 62 62 61 60 60 59 59 58 58 57 57 56 56 55 54 53 54 52
19 20 20 21 23 24 25 25 26 26 28 30 31 33 34 36 37 38 40 41 42 43 44 44 43 42 42 42 43 44 46 48 50 52 53 53 53 54 54 54 55 56 56 56 57 57 56 56 54 54 54 54 53 54 54 53 51 51 51 52 53 53 53 54 56 57 58 59 60 61 61 61 61 61 60 60 59 59 58 57 57 56 55 55 54
20 20 21 22 23 24 24 25 26 28 30 31 33 34 36 37 39 40 41 42 42 42 42 41 41 41 42 43 44 46 48 50 51 52 52 52 52 53 54 54 55 55 55 54 54 53 51 51 50 49 49 49 50 51 52 52 52 51 50 49 51 52 52 52 54 55 55 55 56 58 60 60 61 61 61 61 60 60 60 59 58 57 57 56 55
20 21 22 23 23 24 24 26 28 30 31 33 34 36 37 38 40 41 41 41 40 40 39 40 40 41 42 44 46 48 49 50 51 51 51 52 52 53 54 54 54 53 52 51 49 48 47 47 47 47 47 48 49 50 52 52 52 52 51 49 49 50 51 51 53 54 54 54 54 55 57 58 59 60 61 62 62 61 61 61 59 58 58 57 56
20 21 22 22 23 24 26 28 30 31 33 34 35 37 38 39 40 41 40 39 38 38 38 39 40 41 43 45 47 48 49 49 49 50 51 52 53 53 53 52 52 50 49 47 46 46 46 45 46 47 47 48 48 49 50 50 49 49 49 48 46 45 45 46 49 52 53 53 53 53 55 56 56 58 59 60 61 62 62 62 61 60 58 58 57
20 21 21 22 24 26 28 30 31 32 34 35 36 37 38 39 39 39 38 37 36 37 37 38 40 42 44 46 47 48 48 49 49 51 52 52 53 52 52 50 48 46 45 45 44 44 45 45 46 47 48 48 48 47 48 48 46 44 42 40 39 39 40 41 44 48 49 49 50 51 53 56 57 56 57 59 60 62 63 63 62 61 60 59 58
20 20 21 23 26 28 29 31 32 33 34 35 36 37 37 37 37 36 35 35 36 36 37 39 41 43 45 46 47 48 48 49 51 52 52 53 52 51 49 47 45 44 43 43 44 44 45 46 47 48 48 49 47 46 46 46 43 39 35 33 33 35 37 38 40 44 45 43 42 44 46 52 57 57 57 58 60 61 62 63 63 62 61 60 58
19 21 23 25 27 29 30 31 33 34 35 35 36 36 36 35 34 33 34 34 35 36 38 40 42 44 45 46 46 47 49 50 51 52 52 51 50 48 46 44 43 43 43 43 43 44 45 46 47 48 49 49 47 46 45 42 37 32 31 32 34 36 36 35 34 37 40 39 37 37 39 44 51 56 58 59 60 61 62 62 63 63 62 60 59
21 22 25 27 29 30 31 32 33 34 35 36 36 35 34 32 32 32 32 33 35 37 39 41 42 44 44 45 46 47 49 50 51 50 49 48 46 44 43 42 42 42 43 43 43 44 45 46 48 49 50 50 49 47 44 38 31 30 31 35 38 38 35 33 31 33 37 38 37 37 39 42 46 50 56 60 61 60 61 61 62 62 62 61 59
22 24 26 28 29 30 31 32 34 35 36 35 35 33 32 31 31 31 32 34 35 37 39 40 42 43 43 44 46 48 49 49 49 47 46 44 42 41 41 40 41 41 42 43 43 44 45 46 48 49 51 51 50 50 47 39 32 32 34 37 40 40 35 33 34 35 35 34 34 35 38 44 46 45 51 59 62 60 60 60 61 61 62 61 59
24 26 28 29 30 31 32 33 35 35 35 34 33 32 31 30 30 31 32 34 35 37 39 40 41 42 43 45 46 47 47 47 45 43 41 40 40 39 39 39 40 40 41 42 42 43 44 46 47 49 51 52 51 52 51 45 38 36 36 38 41 41 39 39 39 36 31 27 27 27 29 38 43 42 46 54 60 61 59 59 59 59 60 60 59
26 27 29 30 30 31 33 34 35 35 34 33 32 31 30 30 31 31 32 34 35 37 38 39 40 41 43 45 46 46 45 43 41 40 39 38 38 38 38 38 39 40 40 41 42 43 44 45 47 49 51 52 52 52 52 48 43 40 38 39 43 42 41 41 37 30 28 28 28 26 24 28 34 38 43 49 56 59 60 58 58 58 58 58 58
27 28 29 30 31 32 33 34 35 34 33 31 30 29 29 30 30 31 32 34 35 37 38 39 40 41 43 44 44 43 42 40 38 37 37 37 37 37 37 38 38 39 40 41 41 42 43 44 46 49 51 52 52 51 51 49 44 39 36 37 41 41 39 35 31 26 26 29 30 29 28 27 26 31 38 43 49 56 58 58 56 56 56 56 56
27 28 29 30 31 33 34 34 33 32 30 30 29 29 29 29 30 31 32 34 36 37 37 38 39 41 43 43 42 40 39 37 36 36 36 36 35 35 36 36 37 38 39 40 40 41 41 43 45 47 50 51 51 50 50 48 44 37 34 35 38 39 37 32 28 26 25 27 30 30 31 31 26 23 29 35 42 50 55 56 55 54 53 54 54
27 28 29 30 32 33 33 33 31 29 29 28 28 28 28 28 29 31 33 34 35 36 36 38 40 41 41 40 39 37 36 35 34 34 34 34 34 34 35 36 36 37 38 38 38 39 39 40 42 44 47 49 49 48 48 47 44 37 33 35 37 38 36 31 27 23 21 25 31 31 30 31 26 19 17 25 34 43 50 53 52 51 51 51 51
27 28 29 31 32 32 32 30 29 27 27 27 27 27 27 28 30 31 33 34 34 35 36 38 39 40 39 38 36 35 34 33 33 33 33 33 33 34 35 36 37 37 37 37 38 38 38 39 40 41 44 47 48 47 46 46 44 38 34 34 36 37 35 31 26 21 16 20 29 33 32 30 28 24 13 15 26 34 43 47 48 48 47 47 47
Wind_Direction
288 299 309 321 332 333 328 325 321 316 309 300 296 299 301 305 313 320 324 327 327 327 328 328 328 328 328 327 326 325 324 322 321 319 318 319 320 320 318 316 315 314 314 314 314 313 312 312 313 316 316 312 309 311 301 283 273 273 275 274 272 270 270 271 271 273 276 278 280 281 281 281 282 282 279 276 274 275 275 275 272 269 267 266 266
284 294 306 318 327 329 328 325 320 314 307 300 297 297 299 305 312 316 319 319 318 319 321 323 324 325 325 325 325 326 326 327 326 326 325 324 321 319 317 315 314 313 311 312 312 312 311 311 311 310 308 305 304 303 298 286 277 278 278 277 274 272 271 271 271 271 272 275 278 280 280 279 279 279 278 275 273 273 273 273 272 269 267 267 267
280 290 301 313 319 323 325 323 316 309 303 298 296 295 298 304 307 309 310 310 311 314 318 321 322 324 325 326 327 328 329 329 330 330 329 327 323 319 317 315 313 312 311 310 310 309 309 309 309 307 305 305 303 300 297 289 280 280 282 280 277 274 272 272 272 272 271 271 273 276 278 278 277 276 276 274 272 271 272 272 270 268 267 267 268
277 287 297 306 311 316 318 318 314 306 298 294 295 298 303 306 307 309 309 310 312 316 320 322 324 326 327 328 328 328 329 330 330 330 329 327 325 322 320 319 317 316 315 315 312 310 308 308 308 306 305 303 299 297 297 291 282 279 281 282 280 278 275 273 273 272 271 270 270 272 275 277 276 275 274 273 271 270 270 270 270 267 265 265 267
275 282 292 299 304 312 316 318 313 305 298 298 300 304 305 304 306 307 308 309 312 316 320 323 325 327 328 329 329 329 329 330 330 329 329 328 326 325 324 324 323 322 322 321 316 312 311 310 308 306 303 300 297 295 294 292 286 279 279 280 281 282 280 277 274 273 272 270 268 269 271 274 275 274 273 271 269 268 268 268 268 267 265 264 266
274 279 285 290 298 306 312 314 309 301 296 296 298 299 298 298 301 304 306 309 311 315 318 322 325 327 329 330 330 331 331 332 330 329 329 328 327 326 325 325 325 325 324 323 319 316 316 313 310 307 305 303 299 294 292 292 289 282 279 279 280 282 281 279 275 273 271 271 270 268 268 270 272 273 272 271 269 266 266 266 266 265 264 263 263
274 277 279 285 291 296 301 304 298 291 288 287 288 289 290 294 300 304 306 308 309 313 318 323 326 328 328 329 330 331 332 332 331 330 329 328 328 327 327 326 325 324 323 322 320 318 317 315 312 310 308 306 302 298 293 291 289 284 282 281 281 281 280 279 277 275 273 271 271 269 267 267 268 270 270 270 268 266 263 263 264 264 263 262 261
275 276 278 282 286 290 295 294 286 281 280 280 282 283 286 293 300 304 304 304 308 313 318 323 325 326 326 327 329 331 332 332 331 330 329 329 328 328 328 327 326 324 323 321 320 318 317 316 314 312 310 308 306 304 299 294 290 287 286 286 284 282 281 280 278 277 276 273 270 269 268 266 266 267 268 268 267 266 263 261 261 261 261 261 259
275 274 276 281 285 289 292 287 279 275 275 277 279 282 288 295 300 301 301 303 307 312 316 319 322 324 324 325 328 330 331 331 330 329 328 328 327 327 326 326 324 323 322 321 320 319 318 316 314 313 311 310 308 308 306 301 295 290 289 288 286 284 282 282 279 275 273 271 269 268 267 266 265 265 266 267 267 266 263 260 259 259 259 259 258
273 274 277 283 288 289 287 279 272 271 272 276 281 286 291 296 297 298 299 303 307 310 313 317 319 321 322 323 326 327 328 327 326 326 326 326 325 324 323 323 322 321 320 320 318 317 317 316 315 313 311 310 309 308 307 305 300 295 292 289 289 287 284 283 280 275 271 270 269 267 266 264 263 263 264 264 265 265 264 261 257 256 256 256 256
272 276 280 285 287 284 276 267 264 265 270 277 282 287 291 294 295 294 297 300 304 308 311 314 316 318 320 321 322 323 323 323 323 323 323 322 320 320 320 319 318 317 316 315 314 314 315 316 316 315 314 312 311 309 308 306 304 301 298 295 293 291 288 284 281 278 276 275 271 268 268 267 265 263 262 262 263 264 264 262 259 255 254 254 254
272 277 282 283 278 270 263 260 259 262 269 275 279 283 286 289 291 292 294 297 300 304 306 310 312 315 318 319 319 318 318 319 318 318 318 317 316 315 315 314 313 312 312 312 312 312 313 315 315 315 314 313 312 310 309 307 305 303 301 300 296 292 289 286 283 281 279 277 275 272 271 271 270 266 262 261 261 261 262 262 261 257 254 253 252
271 278 282 278 268 259 259 258 256 261 268 273 277 279 282 285 288 289 291 293 296 299 303 307 309 311 313 314 313 312 313 314 313 313 313 312 311 310 309 309 309 308 309 309 309 310 311 311 311 312 312 311 311 309 308 306 304 302 301 301 299 294 290 287 284 282 281 280 279 276 273 271 270 269 265 261 259 259 260 260 260 258 254 252 252
272 277 278 275 265 259 259 256 255 261 267 273 276 277 279 282 285 287 288 290 293 297 301 303 305 308 310 311 310 309 309 309 309 309 310 309 309 308 308 308 308 307 307 306 306 307 308 309 309 309 309 309 308 307 306 304 302 301 300 299 299 297 295 291 288 286 283 282 280 276 272 269 268 268 266 262 259 258 259 258 258 258 255 252 251
270 271 272 270 264 261 262 259 259 262 265 269 272 274 278 281 284 285 286 288 293 297 300 302 304 307 309 310 309 308 307 307 307 306 306 307 307 307 308 308 308 307 305 303 303 303 304 305 305 305 306 305 305 304 303 301 300 299 298 297 297 297 296 295 295 293 286 279 276 274 272 271 268 266 264 262 260 258 257 257 256 256 254 252 251
266 262 261 262 261 262 262 260 261 263 263 266 269 274 279 281 284 285 286 289 292 295 298 300 303 305 307 308 308 309 309 310 310 308 306 306 306 306 307 307 306 305 303 301 300 300 301 301 300 300 301 301 301 300 299 298 297 296 295 295 295 294 294 294 295 294 289 282 278 275 274 273 270 268 265 263 262 259 256 256 255 254 252 251 251
257 253 251 254 260 263 263 263 264 264 265 268 271 276 280 282 285 287 290 292 293 294 295 298 301 304 306 307 307 308 309 311 313 312 311 311 308 306 306 304 304 303 302 301 300 299 299 298 297 297 297 297 297 296 296 295 293 293 293 292 292 291 291 291 290 290 289 287 284 281 279 277 274 271 268 265 264 262 258 255 254 254 251 250 249
248 246 246 252 261 263 263 265 266 267 269 272 275 278 280 283 286 289 292 293 294 295 297 299 301 303 303 304 305 307 308 310 311 311 312 312 311 310 308 306 304 302 300 300 300 299 299 299 297 296 296 296 295 294 293 292 291 290 290 290 289 289 288 288 288 288 288 288 286 284 282 278 273 271 270 267 266 266 263 257 255 255 252 249 247
244 242 244 251 259 261 262 265 267 269 271 274 277 279 282 285 287 290 292 293 295 297 299 300 301 301 301 300 301 303 305 307 308 309 309 308 308 309 309 308 305 302 300 299 299 298 299 299 298 297 297 296 295 294 292 291 290 289 288 288 287 287 286 286 286 287 289 288 286 284 281 277 274 274 274 271 268 268 266 261 257 257 254 249 246
237 237 241 249 254 257 260 264 267 270 273 276 278 281 283 286 288 290 291 293 295 298 300 302 303 302 301 301 301 304 306 307 307 308 307 304 303 304 305 304 303 302 301 300 298 298 298 298 298 297 297 295 293 293 292 291 290 289 288 287 286 285 285 285 285 284 286 287 286 283 280 278 277 275 274 272 271 269 267 263 260 260 258 251 244
226 230 238 247 252 255 259 263 266 270 274 277 279 282 284 286 287 289 291 294 296 299 301 302 303 303 304 305 307 310 311 311 309 308 307 305 303 302 301 300 299 299 299 298 297 296 296 295 295 295 295 293 292 292 291 290 289 288 287 286 286 285 284 284 284 283 282 282 283 282 280 279 275 271 272 274 273 271 269 267 263 261 263 255 243
224 230 239 247 251 255 258 262 267 272 276 278 280 282 283 285 287 290 293 296 298 299 300 301 302 303 305 308 311 312 313 312 311 310 309 308 307 305 302 299 297 297 298 297 296 297 296 295 295 294 294 293 292 291 290 289 288 288 287 286 285 284 283 283 282 282 280 279 279 279 278 277 274 271 272 272 270 270 269 268 265 260 262 259 244
229 234 243 249 252 256 260 265 269 273 276 278 280 282 284 287 290 293 296 298 299 300 300 301 303 304 307 309 310 310 311 311 311 311 312 311 310 308 306 303 301 299 298 297 296 296 296 296 296 295 295 294 293 292 291 289 288 287 286 285 284 283 282 282 281 280 279 278 277 277 276 274 272 271 271 269 268 269 268 267 266 262 262 262 248
230 240 246 249 254 259 263 267 271 273 276 278 281 284 287 291 294 297 298 299 300 301 302 304 305 307 308 309 309 310 310 311 310 310 310 309 308 306 304 302 301 299 299 297 296 296 294 294 294 294 295 294 294 292 291 291 289 287 286 285 284 283 282 281 280 279 278 276 275 274 274 273 272 270 268 267 267 266 265 264 266 264 262 264 254
233 242 247 252 258 262 266 270 274 277 280 283 286 288 291 295 297 298 298 299 301 302 304 306 307 309 310 310 310 310 310 310 309 309 309 308 307 305 303 301 299 298 298 297 296 296 294 294 293 293 294 293 293 292 291 290 289 287 286 285 284 283 282 280 280 279 277 275 273 272 271 271 271 270 267 266 264 263 264 264 265 264 262 261 258
239 245 252 259 264 267 272 277 279 282 285 287 290 292 294 296 297 298 299 301 302 303 305 307 309 310 310 310 310 309 309 309 309 309 309 308 306 305 303 301 300 299 299 298 297 296 295 295 294 293 293 293 292 292 291 289 288 287 286 285 283 282 281 280 278 278 276 275 273 271 270 268 267 268 267 265 262 261 263 262 261 261 259 256 257
244 251 258 263 267 273 278 281 283 285 287 290 293 294 296 297 298 299 300 301 302 304 306 308 309 310 309 309 308 308 309 309 310 309 308 307 305 303 300 299 298 298 298 297 297 296 296 296 296 295 294 294 293 291 290 289 288 287 286 285 284 282 280 279 277 275 274 274 273 270 269 267 265 264 264 264 262 260 259 259 258 257 256 254 253
249 255 261 266 272 278 281 283 286 288 290 293 294 295 296 298 299 300 300 302 304 306 308 309 308 307 307 307 308 309 310 310 310 310 308 306 304 302 299 298 297 297 298 298 297 297 296 296 296 296 295 294 293 292 290 289 288 287 286 285 283 281 279 277 275 274 272 271 271 270 268 266 264 262 261 261 261 259 257 257 255 252 252 253 251
256 261 266 272 277 281 284 286 288 290 292 292 293 295 297 298 299 300 301 304 306 307 308 307 306 306 307 308 309 310 311 311 311 310 309 307 304 302 300 300 299 299 299 299 299 299 299 298 297 297 297 294 292 292 290 289 287 286 286 284 283 281 278 276 274 272 270 269 268 268 267 265 264 262 260 259 259 259 257 255 253 248 247 250 250
261 266 271 276 280 283 285 287 289 290 291 292 294 296 297 298 300 302 304 306 307 307 307 306 306 306 307 308 310 311 312 313 312 311 309 307 304 302 301 300 300 300 299 300 300 300 300 301 299 297 297 296 294 292 291 290 288 286 285 284 282 280 277 275 273 271 269 267 266 266 265 264 263 262 260 257 257 257 256 254 251 248 247 249 249
264 269 274 278 281 283 286 288 289 289 290 292 294 297 298 300 302 304 307 307 307 307 307 306 307 307 308 309 312 313 314 314 313 311 309 306 304 303 302 301 301 301 300 300 301 300 299 299 300 298 297 297 296 294 292 291 290 288 286 284 282 280 278 275 273 271 268 266 265 264 264 263 262 261 259 257 255 255 254 253 250 248 248 248 247
267 272 275 279 282 285 288 288 287 288 290 293 296 298 300 302 304 306 307 306 306 306 307 307 307 308 310 312 314 314 314 314 312 311 309 307 306 305 305 305 304 303 303 301 301 301 300 299 299 299 298 297 296 294 293 292 290 289 287 285 283 281 279 277 274 272 269 267 264 263 262 262 261 260 258 257 255 253 253 252 250 248 248 248 246
271 274 278 281 284 285 286 286 286 288 291 295 297 299 301 304 305 306 306 307 307 307 307 308 309 310 312 314 315 315 314 313 312 311 310 310 310 309 308 308 306 305 304 303 302 302 303 302 301 300 298 297 296 294 293 291 290 289 287 286 284 282 280 277 275 272 270 268 265 263 261 260 260 259 257 256 255 253 252 251 250 248 247 247 246
272 275 278 280 282 284 285 286 288 291 294 297 299 300 302 304 306 307 307 307 307 308 308 309 310 312 314 315 315 314 314 313 312 312 312 312 312 311 310 309 308 307 306 305 305 304 304 304 303 301 300 299 297 296 294 292 290 288 287 285 283 281 280 278 275 273 270 267 265 263 261 259 258 257 256 255 254 252 251 250 249 248 247 246 246
270 273 276 280 283 284 286 288 290 294 296 298 300 302 304 306 307 307 307 307 307 308 309 310 312 313 315 315 315 314 313 313 313 313 313 313 312 312 312 311 310 310 309 308 308 307 306 306 305 304 302 300 299 297 295 293 291 289 286 285 283 281 279 277 275 273 271 268 265 263 261 259 257 256 255 254 253 251 250 249 247 246 246 247 246
270 274 278 282 284 286 289 291 294 297 298 300 302 304 305 306 306 307 307 308 308 308 309 311 313 314 315 314 314 313 313 313 314 314 314 314 313 313 312 312 312 312 312 312 311 310 309 308 307 306 304 303 301 300 298 297 295 293 290 288 285 282 280 278 275 273 271 269 266 263 260 259 257 255 254 253 252 251 249 247 247 245 245 245 246
272 276 280 283 286 289 292 295 297 299 301 302 303 304 304 305 307 308 308 308 308 309 310 313 314 314 314 313 313 313 313 314 314 315 315 314 314 313 313 313 314 315 315 314 313 312 311 310 309 309 308 307 306 305 303 301 299 297 295 293 290 286 282 280 277 274 271 269 267 264 261 258 256 255 253 252 251 250 249 247 246 245 244 244 244
274 278 281 285 289 291 295 298 300 301 301 302 302 303 305 307 308 309 309 309 309 310 312 314 314 313 313 312 313 314 315 315 315 315 315 314 314 315 315 316 316 316 316 315 314 314 314 314 313 313 313 312 311 309 307 305 302 299 296 294 292 290 286 282 278 275 272 269 267 265 263 260 256 254 252 251 249 248 248 247 245 244 244 243 243
275 279 283 287 290 293 297 299 299 300 300 301 303 304 306 308 309 310 310 310 310 312 313 313 313 312 313 314 315 316 316 315 315 315 315 316 316 317 318 318 317 317 317 316 317 317 317 318 318 317 317 316 315 313 310 308 306 303 300 296 293 291 289 285 281 277 273 269 266 264 263 261 258 254 252 249 248 246 246 245 244 243 242 242 242
278 282 285 289 292 295 297 298 298 299 300 302 303 305 306 307 308 310 310 310 312 313 312 312 312 313 315 316 316 315 315 315 316 316 317 317 319 319 319 319 319 319 319 320 321 321 321 321 321 320 320 319 318 316 313 310 308 305 302 299 296 293 291 288 285 280 275 270 267 264 261 259 257 254 251 249 246 244 243 243 243 241 240 240 241
280 284 288 291 293 295 295 296 298 299 300 302 304 305 306 307 309 310 310 311 312 312 312 313 314 316 316 316 316 315 316 317 317 318 318 319 320 320 320 320 321 321 323 324 324 325 325 324 324 323 323 323 322 320 316 313 311 307 303 301 301 301 298 296 293 287 280 273 268 265 261 258 254 252 250 248 246 243 241 240 240 240 239 238 238
281 285 288 290 292 293 295 297 298 299 301 303 304 306 307 308 309 310 310 310 311 311 313 315 316 317 316 316 317 318 318 318 319 319 320 321 321 321 322 322 324 325 326 327 328 328 328 327 327 327 327 328 327 326 323 319 315 311 307 306 306 306 303 299 295 292 289 284 276 270 265 259 253 249 247 246 244 242 240 237 237 237 237 236 236
281 284 287 289 292 293 295 296 298 300 302 304 306 308 309 310 310 309 309 310 311 313 316 317 317 317 317 318 319 319 319 320 321 322 322 323 324 324 325 326 327 328 329 330 330 330 330 330 331 331 332 332 332 332 330 325 317 311 309 309 310 310 306 300 295 291 291 292 287 280 273 266 256 248 244 242 241 240 238 236 235 234 235 234 234
279 283 287 290 292 293 294 296 298 301 303 305 308 310 310 311 311 310 310 312 314 316 318 318 318 318 319 320 320 320 321 322 323 324 325 325 326 327 328 330 331 331 332 332 332 332 332 334 334 335 336 336 337 338 337 332 322 313 310 311 315 318 314 305 299 296 293 292 289 281 274 269 261 251 244 241 238 237 237 235 233 232 232 232 232
279 285 289 291 292 293 295 297 299 302 304 307 310 311 311 311 311 311 312 314 317 318 318 318 319 320 321 321 321 322 323 324 325 326 327 328 328 330 331 332 333 333 334 334 334 335 335 336 337 338 340 341 341 342 342 339 330 321 318 318 321 326 325 318 314 311 304 296 289 281 273 267 263 254 246 241 237 235 234 234 232 230 230 230 230
280 285 288 290 291 293 295 298 300 303 306 308 310 311 311 311 311 312 314 317 318 318 319 320 321 322 322 322 322 324 325 326 327 328 329 329 331 332 333 334 334 335 335 335 336 337 337 337 339 341 344 345 345 345 345 343 337 331 329 328 330 333 334 332 327 322 318 311 303 295 282 271 267 259 248 241 236 233 231 231 230 229 228 228 228
280 284 287 290 291 293 295 298 301 304 307 309 310 310 309 310 312 314 316 318 319 319 320 321 322 322 322 322 324 325 326 328 329 329 331 332 333 335 335 336 336 336 336 337 338 338 338 339 342 344 347 348 347 346 346 344 342 338 336 335 334 336 337 336 331 329 335 336 330 324 312 290 274 261 250 240 234 230 228 227 228 227 226 226 226
278 283 287 289 291 293 295 299 302 305 307 307 307 307 308 311 313 316 317 318 320 321 322 322 322 322 322 324 325 326 328 329 330 331 333 334 336 337 337 338 338 337 338 340 340 340 340 342 345 347 349 350 348 347 347 346 344 341 339 338 336 337 342 340 333 333 338 337 334 335 334 320 293 265 250 239 231 227 225 224 224 224 224 224 224
278 283 286 288 290 292 296 300 303 304 305 305 305 306 309 312 314 317 319 320 321 322 322 321 321 322 324 325 326 328 330 331 332 334 336 337 337 338 339 339 339 340 342 342 341 342 343 345 347 348 350 350 349 348 347 347 346 341 340 342 341 342 347 346 339 335 332 333 337 343 345 340 322 283 253 237 227 223 222 220 220 220 221 221 222
278 283 285 287 289 292 297 300 302 302 302 302 304 306 309 313 316 318 320 321 321 321 321 321 322 323 325 326 328 330 332 333 335 337 338 338 339 340 340 340 341 342 343 342 342 344 346 347 349 349 350 350 350 349 349 349 349 345 341 344 349 351 352 351 351 345 334 339 349 354 358 360 349 321 270 238 224 219 217 216 216 216 217 218 219
279 282 284 286 289 294 297 299 300 300 300 301 303 307 311 314 317 319 320 321 321 320 321 322 323 325 326 328 330 332 334 335 337 339 339 339 340 341 341 342 343 344 343 344 345 347 348 349 349 350 350 351 351 350 350 351 351 350 346 347 353 357 356 358 7 8 354 354 1 4 10 14 8 354 323 242 222 217 213 211 212 213 214 216 216